Wind_Speed
8 9 9 10 11 11 11 12 11 10 10 10 10 11 12 12 13 11 11 9 6 5 4 2 0 3 2 4 1 6 8 8 3 3 6 3 4 2 4 3 3 5 3 6 6 9 8
7 8 8 8 9 11 12 12 11 10 10 10 11 11 12 13 13 12 11 8 5 5 3 2 1 1 1 1 1 5 6 8 8 6 5 5 2 2 4 3 4 3 6 6 3 5 5
6 6 7 8 8 8 10 10 10 11 11 12 12 13 13 13 14 12 11 7 4 3 3 2 2 2 4 2 1 4 4 4 6 5 2 2 1 2 2 5 6 7 5 2 2 3 4
6 5 7 7 8 8 7 9 10 10 11 11 12 14 14 15 14 11 10 5 3 2 2 1 1 1 1 1 1 5 3 1 2 3 1 1 2 4 3 3 4 4 4 2 2 5 2
8 6 4 9 9 8 9 8 10 10 10 11 12 13 14 14 15 12 9 4 3 1 1 0 1 1 0 0 2 4 5 3 5 3 2 2 2 3 4 5 4 4 2 3 2 7 4
7 9 10 8 9 10 9 10 9 10 11 10 11 13 14 14 14 11 7 3 1 1 0 0 1 3 0 1 2 3 4 3 2 3 4 4 5 3 3 4 5 5 3 3 4 6 5
11 9 12 10 6 9 11 10 11 10 11 11 11 12 14 14 12 10 6 3 3 3 5 1 1 1 1 1 2 3 4 3 1 5 3 3 4 4 7 5 4 3 4 4 3 5 5
11 11 8 10 9 7 10 12 13 13 12 12 11 11 12 13 10 9 5 3 2 1 2 1 1 1 1 1 1 3 6 1 1 3 3 5 3 4 3 4 3 3 3 3 1 3 4
13 12 9 12 10 9 9 10 13 14 13 13 12 11 12 11 7 4 5 3 1 1 1 2 2 2 2 2 2 2 4 0 2 3 4 5 1 2 2 1 3 1 4 3 2 1 1
16 16 11 11 10 10 10 11 10 13 14 14 12 10 10 9 1 4 2 2 1 1 4 3 2 2 1 2 1 1 1 1 0 6 6 2 1 3 2 3 4 2 4 2 3 3 4
21 19 16 14 11 10 12 11 12 10 13 14 13 10 8 5 1 0 1 1 1 0 3 1 2 0 1 3 3 1 1 1 3 4 5 4 5 3 3 3 1 4 2 2 1 2 4
21 22 20 18 15 12 10 12 11 11 10 12 13 10 6 2 1 2 1 1 1 5 6 2 3 2 2 1 1 1 2 2 1 2 2 1 1 1 1 2 2 4 4 6 4 3 1
14 21 24 22 20 16 14 10 12 10 11 9 11 10 7 4 2 5 5 3 5 4 0 4 4 3 2 4 1 3 2 1 4 4 3 2 1 1 1 2 4 3 4 3 4 2 5
15 17 17 19 24 21 19 14 12 11 10 10 9 9 7 7 6 7 6 4 3 4 6 2 4 3 5 5 2 3 2 2 3 3 2 5 4 3 2 1 3 3 5 4 5 3 4
15 15 17 21 23 24 23 20 15 12 10 10 10 6 5 7 8 9 5 3 8 7 4 8 3 3 3 3 3 3 6 4 3 6 7 4 2 1 3 2 1 2 2 1 1 1 2
18 18 16 13 18 24 24 24 19 15 10 7 5 3 4 9 10 4 4 7 6 4 4 3 9 5 7 6 6 5 7 2 5 2 2 4 1 1 1 2 2 3 3 3 2 3 5
19 19 21 22 20 18 18 24 22 19 15 9 2 0 3 10 10 3 4 8 6 4 5 7 8 6 6 7 8 5 6 2 5 5 2 4 3 1 1 5 7 2 2 1 2 4 4
20 19 18 17 18 17 16 24 26 23 16 9 2 3 5 11 2 2 4 7 4 6 2 3 3 5 9 8 8 6 9 2 4 6 7 5 4 5 7 1 1 1 4 5 4 4 4
19 18 18 17 14 15 13 18 25 24 19 14 5 1 2 2 4 4 4 4 4 5 6 7 8 5 4 8 4 6 4 1 1 5 7 6 2 1 4 2 1 4 5 4 4 3 7
18 16 17 17 14 11 13 9 19 22 21 11 4 2 1 2 2 3 4 5 6 2 3 3 4 4 3 5 3 6 5 3 3 3 5 3 3 6 7 4 5 5 6 6 6 4 6
18 18 16 16 17 13 11 10 16 14 21 10 2 3 3 3 3 6 8 6 4 6 2 1 1 6 7 6 5 6 4 3 0 4 4 5 6 3 4 5 3 5 5 8 10 11 10
19 18 16 15 14 14 12 11 16 10 15 2 4 4 2 2 2 2 9 4 7 1 5 5 5 3 4 5 7 9 8 5 5 2 5 0 2 3 3 4 5 6 9 12 13 12 8
19 18 16 14 11 9 11 9 20 18 17 2 2 2 1 4 3 5 4 6 3 3 2 3 3 2 7 4 4 3 4 4 7 9 7 6 5 3 3 3 6 8 13 16 3 1 3
22 20 17 15 11 9 7 8 20 20 19 11 6 3 3 3 4 5 6 2 6 5 3 2 3 5 1 9 7 5 9 9 8 6 2 6 6 3 2 2 3 4 2 3 3 2 2
20 15 17 16 14 11 9 7 15 23 24 20 10 6 2 2 2 3 7 5 4 1 3 1 3 4 4 3 3 3 3 2 1 4 4 2 4 3 3 3 7 1 4 5 5 5 6
22 21 19 17 16 15 13 10 10 22 27 21 14 10 4 1 5 2 3 4 3 2 1 1 1 7 3 3 3 5 6 4 4 1 4 3 4 3 3 3 6 4 3 3 3 4 6
19 23 25 24 24 19 15 13 11 14 29 21 6 14 4 3 1 1 3 3 4 3 2 3 5 2 3 3 4 4 3 3 5 7 5 3 1 8 5 4 7 3 5 4 5 4 6
19 20 21 23 25 21 18 16 15 15 29 25 7 13 4 2 2 3 2 3 2 3 4 4 3 2 2 3 4 3 3 3 2 4 6 7 7 4 4 4 9 6 5 6 3 3 5
14 15 16 18 20 22 22 20 18 17 30 26 5 11 7 7 3 5 8 6 3 4 2 5 2 3 4 3 3 1 3 2 2 3 1 4 4 5 8 5 1 10 2 3 4 6 5
Wind_Direction
31 37 31 22 20 13 8 4 360 360 358 354 356 356 354 350 346 346 347 350 353 3 17 1 126 134 146 43 237 355 1 7 13 23 38 12 46 21 100 85 69 85 127 56 87 79 72
10 18 19 20 18 13 8 3 352 353 353 350 349 350 350 347 346 342 345 347 352 2 9 3 96 156 155 200 101 6 359 23 31 38 38 40 97 349 96 74 81 100 99 131 60 87 97
1 358 3 7 11 15 9 3 356 351 349 347 344 345 345 345 344 339 342 338 347 351 1 8 83 84 55 145 41 353 355 24 20 25 84 79 10 131 112 98 149 138 89 72 152 159 137
319 325 339 348 354 359 5 0 357 352 348 344 344 345 344 343 343 335 335 329 323 341 334 345 58 56 106 68 343 7 3 38 6 15 60 59 10 97 85 128 64 82 65 97 217 155 159
303 307 336 336 338 342 346 353 356 354 345 341 339 342 341 341 340 338 330 322 319 316 359 48 62 62 247 273 339 353 2 340 333 2 12 352 52 89 45 89 36 9 193 195 298 203 138
259 280 304 319 320 329 336 342 351 350 346 340 339 338 339 338 337 339 328 316 5 264 292 77 71 40 312 262 317 343 344 330 359 349 25 49 47 72 43 84 202 188 202 219 215 204 169
256 251 287 301 308 318 324 334 337 344 344 343 338 337 337 337 336 335 344 304 3 326 44 213 201 176 97 310 332 7 0 348 19 45 120 22 83 198 212 190 172 148 186 199 237 184 143
268 266 268 282 307 308 316 324 330 335 340 341 340 337 335 337 336 342 335 80 141 231 308 225 176 84 122 101 33 325 357 83 115 157 113 33 210 208 162 166 169 185 199 262 326 133 162
270 264 269 269 284 296 305 315 322 327 332 335 338 337 334 336 337 342 43 95 102 304 146 247 213 194 204 138 173 280 357 57 178 143 169 156 228 147 180 186 168 107 172 202 203 68 309
272 266 267 270 270 279 293 303 311 319 323 328 334 335 333 336 17 358 24 31 314 337 50 240 236 245 129 108 272 233 10 180 123 184 156 204 149 163 160 191 141 203 181 157 146 104 233
274 270 268 268 268 269 280 292 301 310 317 323 328 328 334 344 358 108 252 312 337 260 0 161 176 125 110 163 147 253 11 54 182 179 107 251 161 165 180 206 186 218 113 102 115 120 22
289 272 270 271 268 266 267 279 289 300 309 316 321 322 325 274 235 169 167 106 39 48 257 192 136 163 118 245 235 96 39 45 46 85 44 110 13 72 201 75 44 133 88 39 52 94 304
292 282 279 269 267 266 264 264 277 289 299 309 316 314 302 255 196 167 143 68 46 149 309 198 201 161 196 199 228 173 174 197 167 93 230 5 227 27 79 106 16 90 69 321 338 354 232
286 276 289 291 271 261 260 257 259 277 290 304 311 302 277 253 203 164 121 61 207 230 204 137 137 132 182 157 229 171 116 267 230 111 123 170 304 157 23 69 194 171 156 167 254 232 277
315 287 276 283 286 278 262 255 251 256 275 294 307 282 240 228 202 173 84 122 211 208 162 147 80 159 222 198 200 157 200 209 194 178 182 158 262 24 57 35 84 180 193 173 73 54 23
285 294 299 295 295 287 277 257 247 239 244 270 301 273 226 189 176 161 92 224 217 201 143 141 184 167 191 196 167 184 190 189 175 165 184 192 162 247 214 141 56 167 162 72 6 257 260
279 281 291 289 285 279 274 274 251 236 230 220 267 29 169 165 158 69 195 226 218 198 181 169 194 171 208 181 182 204 208 196 180 163 152 150 126 203 101 204 182 125 213 94 125 169 208
293 286 278 285 286 280 261 271 252 226 213 178 115 236 167 157 149 233 197 201 174 184 180 199 163 177 183 172 180 214 207 231 181 158 166 185 143 195 206 92 43 231 216 157 141 239 249
295 295 292 292 287 285 260 270 231 228 203 143 142 259 38 160 202 225 265 251 217 157 202 188 203 196 202 178 192 186 179 123 143 162 161 180 191 58 322 15 66 204 199 164 124 100 209
290 286 287 289 288 277 276 276 241 237 211 155 126 165 313 345 320 292 215 225 215 214 211 177 167 130 139 197 231 179 162 202 162 136 130 118 174 196 198 176 134 192 205 183 153 154 231
287 289 285 280 283 281 270 266 223 239 223 169 163 191 156 192 259 256 316 326 192 196 219 169 285 227 178 176 177 194 133 141 39 177 144 148 207 189 265 237 238 216 198 196 199 220 208
280 281 285 284 280 278 274 246 240 218 222 311 143 148 171 184 169 353 203 239 242 149 140 223 217 263 213 195 194 191 144 186 185 143 159 171 200 123 285 283 221 246 230 237 229 236 259
276 269 272 276 279 281 272 253 222 209 198 113 243 96 180 149 156 147 199 232 298 82 243 276 274 127 226 242 68 40 71 87 139 149 165 154 142 113 259 360 326 284 217 224 190 56 168
272 269 259 266 270 273 281 243 231 228 208 195 179 172 140 212 203 190 179 200 263 184 239 2 1 199 166 117 108 61 49 62 68 45 109 146 138 136 231 30 238 243 177 167 152 226 208
262 264 250 256 261 265 267 258 233 237 228 213 182 165 161 196 203 200 207 178 140 98 161 111 1 346 301 34 66 48 357 35 45 27 28 28 138 154 185 210 311 297 204 178 164 255 194
258 259 255 264 270 257 257 258 243 229 235 212 198 189 156 178 211 80 153 168 164 132 117 153 199 334 328 87 138 187 195 186 207 126 3 83 61 146 138 209 244 241 185 139 124 299 177
254 254 255 257 261 260 247 252 248 228 214 221 201 187 152 164 182 301 169 185 160 146 103 119 154 151 56 201 207 203 234 158 181 176 171 138 134 209 199 224 283 188 148 163 90 249 152
249 251 249 249 249 248 250 251 249 224 209 216 215 199 165 106 86 42 334 132 138 169 154 136 115 160 68 184 203 219 201 216 153 141 176 168 152 182 152 202 264 143 81 172 184 68 131
258 258 255 250 246 246 247 243 234 212 208 203 154 189 164 76 88 59 61 46 26 357 111 184 9 139 151 163 200 172 202 156 134 224 215 195 186 177 189 206 141 176 99 130 144 141 157
Height
850 848 847 847 847 847 846 845 844 843 841 839 836 834 832 831 829 826 824 821 820 818 818 817 816 816 817 818 820 817 817 816 814 813 813 812 814 815 822 821 821 831 833 837 841 841 847
850 849 848 847 846 846 845 844 845 843 841 839 837 834 832 831 828 826 824 821 820 819 818 818 817 817 817 822 818 817 816 816 815 814 814 813 816 815 820 823 826 829 835 839 839 842 847
849 849 848 848 846 845 844 844 843 843 841 839 838 835 833 830 828 826 823 822 821 820 819 819 818 817 817 821 819 818 817 816 815 815 815 815 814 815 818 825 827 832 840 839 841 841 847
850 849 849 848 846 845 843 842 842 841 840 839 837 835 833 831 828 826 823 822 821 820 820 819 819 818 822 820 819 819 818 817 816 815 815 815 815 816 820 822 827 835 843 849 841 842 847
850 849 847 848 847 845 844 841 840 839 839 838 836 834 833 831 828 825 823 821 821 820 820 820 820 819 823 820 820 819 819 818 816 816 815 815 815 822 825 839 850 846 854 851 843 843 846
846 849 847 845 846 846 843 842 839 838 838 836 835 834 832 830 828 825 823 822 821 820 820 820 820 824 822 821 820 819 819 818 818 817 818 818 828 836 842 848 859 852 850 845 846 844 846
847 844 846 845 842 843 844 841 840 837 836 835 834 833 831 829 827 825 823 823 825 825 820 821 823 822 820 821 820 820 819 818 818 820 828 826 838 843 838 837 833 834 838 838 835 836 843
843 844 841 843 842 840 841 841 840 837 835 834 833 831 829 828 826 825 824 824 826 827 824 820 821 821 820 820 822 821 820 822 822 828 826 836 839 830 827 829 830 832 837 839 837 837 841
841 841 839 840 838 839 838 838 838 837 835 833 831 830 828 826 825 827 826 827 826 826 827 821 820 821 821 821 822 822 821 822 822 826 828 836 829 825 827 830 833 837 839 838 839 838 839
839 839 836 837 835 836 836 836 835 835 835 833 830 828 827 825 827 827 828 828 827 826 841 826 823 821 821 820 824 821 821 823 822 827 828 829 826 827 830 831 833 836 836 836 839 848 857
835 836 834 834 831 831 833 833 833 831 832 832 830 828 826 824 825 827 829 828 826 826 866 824 824 821 821 824 824 822 822 821 824 825 830 831 832 831 833 830 831 836 836 839 841 850 857
831 831 832 832 829 828 827 830 829 830 829 830 830 828 826 824 823 825 826 827 827 848 858 825 822 824 825 824 824 823 822 823 824 825 827 831 830 831 831 834 834 837 840 852 862 866 876
826 827 827 827 827 825 825 823 827 826 827 826 827 827 826 824 823 823 824 827 851 861 819 822 824 824 824 827 827 826 828 830 833 844 838 833 833 834 833 836 837 839 850 863 865 874 854
823 822 822 823 822 822 822 820 821 824 824 824 824 824 825 824 823 823 823 837 845 822 822 815 819 823 826 825 826 828 830 835 831 831 846 848 844 838 838 840 841 846 849 861 843 860 851
820 819 817 817 817 816 817 819 818 818 821 822 822 822 822 822 823 823 829 851 837 821 808 817 819 823 826 823 823 828 834 834 830 831 835 843 834 842 843 842 843 843 851 849 852 862 873
817 817 815 813 812 811 812 814 813 815 816 819 821 821 818 819 821 824 833 827 816 806 808 810 815 814 824 825 828 831 829 826 830 831 832 832 836 843 843 841 844 842 846 857 870 856 851
811 811 812 811 810 808 808 808 809 810 812 815 820 821 817 818 822 827 833 825 807 803 803 808 811 812 815 819 824 826 820 827 827 833 831 832 835 844 843 848 845 854 852 853 861 867 863
809 808 806 806 806 805 803 804 804 805 809 812 818 821 816 818 825 829 821 809 797 803 803 803 802 801 809 813 818 821 817 817 826 829 831 833 844 849 840 849 849 848 847 853 866 852 871
807 805 804 802 800 801 801 801 799 802 802 806 816 820 817 816 816 816 811 800 800 803 803 804 803 800 802 806 808 811 815 828 827 828 830 833 844 858 836 846 848 847 846 848 861 870 855
804 801 802 801 800 797 799 797 798 799 801 803 811 813 819 817 814 809 804 798 798 799 796 796 798 800 803 804 802 813 823 829 828 826 826 829 842 831 829 817 839 845 845 846 849 880 832
799 799 797 796 797 796 796 795 794 797 802 798 805 807 809 815 816 816 811 802 793 796 799 798 800 798 797 804 808 810 823 833 831 827 831 833 838 845 839 835 834 832 831 842 846 833 838
796 795 794 793 792 793 794 791 792 792 799 801 802 804 811 811 810 813 815 811 797 793 799 804 805 793 800 800 794 805 815 824 818 835 836 840 836 839 840 836 843 840 840 835 833 827 840
791 791 792 792 790 789 791 789 789 791 795 799 803 799 798 801 807 811 811 805 796 799 803 804 802 804 807 801 807 814 815 814 815 826 837 841 843 850 844 848 845 838 838 830 834 842 841
787 787 788 789 788 787 787 788 789 791 789 792 798 799 798 799 803 799 800 808 805 802 808 808 809 806 811 809 812 814 819 823 827 832 829 841 840 846 862 850 862 836 855 861 855 865 877
783 782 783 784 784 783 785 786 786 784 787 789 792 795 794 796 799 800 799 802 806 812 812 816 818 820 814 813 816 822 823 822 834 840 836 834 831 843 848 857 834 850 854 853 850 851 873
778 778 779 779 780 780 781 782 782 784 787 786 787 788 792 796 794 795 798 803 805 812 816 817 820 820 818 816 827 820 816 807 835 840 840 837 838 832 850 842 841 846 849 851 864 856 865
774 774 774 774 775 776 777 778 779 781 782 785 784 786 787 790 801 800 795 800 801 805 809 817 819 820 821 819 814 817 807 810 821 830 846 843 842 832 836 848 844 847 849 852 858 850 860
768 768 768 769 769 770 771 773 774 776 778 782 784 785 786 791 800 800 803 802 804 802 806 818 821 823 827 823 818 814 814 810 813 824 833 827 837 847 847 852 843 843 851 847 850 857 858
761 762 762 762 763 764 766 767 769 772 773 777 782 785 784 788 802 805 806 807 807 807 805 811 807 810 811 813 817 815 815 818 818 822 821 819 814 824 827 823 838 837 838 844 846 849 857